Regional Weather Roundup
Issued by NWS Jackson, KY

Home | Current Version | Previous Version | Text Only | Print | Product List | Glossary On
Versions: 1 2 3 4 5 6 7 8 9 10 11 12 13 14 15 16 17 18 19 20 21 22 23 24 25 26 27 28
000
ASUS43 KJKL 292010
RWRJKL

EAST KENTUCKY HOURLY WEATHER ROUNDUP
NATIONAL WEATHER SERVICE JACKSON KY
400 PM EDT SUN MAY 29 2016

NOTE: "FAIR" INDICATES FEW OR NO CLOUDS BELOW 12,000 FEET WITH
NO SIGNIFICANT WEATHER AND/OR OBSTRUCTIONS TO VISIBILITY.

* THESE REPORTS ARE NOT UNDER NWS QUALITY CONTROL AND MAY NOT
  REPORT WEATHER SUCH AS PRECIPITATION AND FOG.

KYZ079-080-083-085-087-088-110-112-115-119-120-292100
...EASTERN KENTUCKY...

CITY           SKY/WX    TMP DP  RH WIND       PRES   REMARKS
JACKSON        CLOUDY    79  65  62 CALM      30.12F
LONDON         SUNNY     82  62  50 CALM      30.10F
SOMERSET*      SUNNY     81  61  50 W3        30.10F
MONTICELLO*    SUNNY     84  65  52 NW9       30.11F
WILLIAMSBURG*  PTCLDY    81  63  54 CALM      30.10F
MIDDLESBORO*   PTSUNNY   83  65  53 CALM      30.10F
HARLAN APT*    MOCLDY    70  63  78 CALM      30.15F
HAZARD APT*    CLEAR     81  63  54 CALM      30.12F
BLACK MTN*       N/A     64  63  94 VRB2        N/A
PIKE CO APT*   DRIZZLE   69  65  89 SW5       30.13F
BIG SANDY APT* CLOUDY    73  67  81 CALM      30.11F
MOREHEAD APT*  CLOUDY    82  59  44 SW6G12    30.11F
ASHLAND*       CLOUDY    82  70  65 W3        30.06F
$$

KYZ035-036-041-042-044-050-067-078-099-292100
...CENTRAL KENTUCKY...

CITY           SKY/WX    TMP DP  RH WIND       PRES   REMARKS
MT STERLING*   PTSUNNY   82  66  57 S6        30.10F
FLEMING/MASON* SUNNY    N/A N/A N/A SE5       30.09F
DANVILLE*      MOSUNNY   86  63  45 W7        30.10F
RICHMOND*      SUNNY     84  63  48 W3        30.09F
LEXINGTON      MOSUNNY   84  64  50 S8        30.09F
FRANKFORT      MOSUNNY   84  63  49 SW10      30.06F
LOUISVILLE     MOSUNNY   87  65  47 VRB5      30.04F
LEBANON*         N/A     86  66  51 S6        30.08F
GLASGOW*       MOSUNNY   85  65  50 SW6       30.08F
BOWLING GREEN  MOSUNNY   87  67  51 S9        30.07F HX  90
$$

KYZ091>093-OHZ055-061-077-WVZ005-015-034-035-042-292100
...SOUTHERN OHIO/WEST VIRGINIA...

CITY           SKY/WX    TMP DP  RH WIND       PRES   REMARKS
COVINGTON      PTSUNNY   85  65  51 SW10      30.05F
COLUMBUS       PTSUNNY   82  60  47 S8        30.06F
DAYTON         CLOUDY    73  62  68 E12       30.05F THUNDER
WILMINGTON     SUNNY     83  64  52 S9        30.05F
HUNTINGTON       N/A     80  67  64 VRB3      30.09F
CHARLESTON     CLOUDY    80  64  58 S5        30.08F
PINEVILLE*       N/A     76  61  60 MISG      30.19F
BECKLEY        CLOUDY    72  59  63 E7        30.17F
BLUEFIELD      CLOUDY    70  57  63 CALM      30.20F
LOGAN CO APT*    N/A     77  63  61 CALM      30.12F
$$

VAZ002-007-008-TNZ017-027-036-066-071-292100
...SOUTHWEST VIRGINIA/EAST TENNESSEE...

CITY           SKY/WX    TMP DP  RH WIND       PRES   REMARKS
WISE*          CLOUDY    72  57  60 SW6       30.19F
JONESVILLE*      N/A     70  68  94 CALM      30.16F
ABINGDON*        N/A     77  53  43 SE8       30.16F
BRISTOL        CLOUDY    80  57  45 N6        30.12F
SEVIERVILLE*     N/A     81  64  57 VRB5      30.08F
KNOXVILLE      LGT RAIN  81  65  58 E6        30.07F
OAK RIDGE      SUNNY     85  64  49 E6        30.09F
CROSSVILLE     MOSUNNY   83  61  47 W8        30.14F
NASHVILLE      MOSUNNY   88  63  43 SW5       30.07F
$$

...KEY TO REMARKS...
VSB - VISIBILITY IN MILES
WCI - WIND CHILL INDEX
HX  - HEAT INDEX

$$




USA.gov is the U.S. government's official web portal to all federal, state and local government web resources and services.